Regional Weather Roundup
Issued by NWS

Home | Current Version | Previous Version | Text Only | Print | Product List | Glossary On
Versions: 1 2 3 4 5 6 7 8 9 10 11 12 13 14 15 16 17 18 19 20 21 22 23 24 25 26 27 28 29 30 31 32 33 34 35 36 37 38 39 40 41 42 43 44 45 46 47 48 49 50
000
ASUS45 KPSR 272010
RWRAZ

ARIZONA HOURLY REGIONAL WEATHER ROUNDUP
NATIONAL WEATHER SERVICE PHOENIX AZ
100 PM MST THU AUG 27 2015

NOTE: FAIR INDICATES FEW OR NO CLOUDS BELOW 12,000 FEET WITH NO
SIGNIFICANT WEATHER AND/OR OBSTRUCTIONS TO VISIBILITY.

AZZ001>003-036-272100-
NORTHWEST ARIZONA

CITY           SKY/WX    TMP DP  RH WIND       PRES   REMARKS
BULLHEAD CITY  SUNNY    104  55  20 W5        29.92F HX 103
KINGMAN        MOSUNNY   92  52  25 W5        30.14F
$$

AZZ004>008-015-016-018-272100-
NORTH CENTRAL ARIZONA

CITY           SKY/WX    TMP DP  RH WIND       PRES   REMARKS
GRAND CANYON   MOSUNNY   79  43  27 NW8G18    30.39F
WILLIAMS       MOSUNNY   77  50  38 VRB3G13   30.43F
PRESCOTT       LGT RAIN  69  58  67 S8G18     30.27F
FLAGSTAFF      PTSUNNY   75  53  46 VRB6      30.39F
PAYSON         TSTM      72  57  60 NE8G35    30.26F
PAGE           SUNNY     83  57  41 N8        30.22F
$$

AZZ009>014-017-272100-
NORTHEAST ARIZONA

CITY           SKY/WX    TMP DP  RH WIND       PRES   REMARKS
WINSLOW        MOSUNNY   83  57  41 E6        30.25F
SAINT JOHNS    PTSUNNY   79  56  45 NW13      30.30F
WINDOW ROCK    PTSUNNY   81  49  32 N7        30.36F
SHOW LOW       LGT RAIN  61  55  82 W7        30.40F
$$

AZZ023-272100-
GREATER PHOENIX AREA

CITY           SKY/WX    TMP DP  RH WIND       PRES   REMARKS
PHOENIX        MOSUNNY  105  60  22 S8        29.92F HX 106
BUCKEYE        SUNNY    102  59  24 S6        29.92F HX 102
GLENDALE       MOSUNNY  104  61  24 SE7       29.93F HX 105
LUKE AFB       SUNNY    103  61  25 SE9       29.90F HX 104
DEER VALLEY    SUNNY    101  60  25 SW12      29.94F HX 101
SCOTTSDALE     SUNNY    101  59  24 SW8G17    29.96F HX 101
MESA-FALCON    MOSUNNY  100  59  25 VRB6      29.94F HX 100
MESA-GATEWAY   MOSUNNY  100  63  28 W6        29.97F HX 102
CHANDLER       MOSUNNY  102  63  27 S8        29.94F HX 104
$$

AZZ027-028-272100-
SOUTHWEST MARICOPA COUNTY AND PINAL COUNTY

CITY           SKY/WX    TMP DP  RH WIND       PRES   REMARKS
CASA GRANDE    MOSUNNY  102  61  25 CALM      29.95F HX 103
GILA BEND      MOSUNNY  104  59  23 VRB5      29.89F HX 104
$$

AZZ503-504-507>509-272100-
SOUTHEAST ARIZONA

CITY           SKY/WX    TMP DP  RH WIND       PRES   REMARKS
TUCSON         MOSUNNY   97  56  25 VRB5      30.07F
DAVIS-MONTHAN  MOSUNNY   96  58  27 SW2       30.05F
RYAN FIELD     SUNNY     97  59  28 CALM      30.05F
NOGALES          N/A     87  53  31 MISG      30.17F
SIERRA VISTA   MOSUNNY   82  57  42 VRB2      30.24F
DOUGLAS        MOSUNNY   88  60  38 S5        30.17F
SAFFORD        MOSUNNY   87  62  43 NE6       30.11F
$$

AZZ020-021-025-026-031-272100-
SOUTHWEST ARIZONA

CITY           SKY/WX    TMP DP  RH WIND       PRES   REMARKS
YUMA           MOSUNNY  106  65  26 VRB5      29.88F HX 110
$$

CAZ031-033-041-043-047-048-061-272100-
SOUTHERN CALIFORNIA

CITY           SKY/WX    TMP DP  RH WIND       PRES   REMARKS
DOWNTOWN L.A.  SUNNY     92  63  38 VRB3      29.95F
L.A. AIRPORT   MOSUNNY   82  66  58 W12       29.97F
SAN DIEGO      MOSUNNY   84  66  54 NW9       29.97F
BURBANK        SUNNY     96  59  29 S10       29.96F
ONTARIO        MOSUNNY   98  55  23 W8G18     29.97F
RIVERSIDE      SUNNY     99  50  19 VRB7      29.96F
PALM SPRINGS   MOSUNNY  109  55  17 E14       29.90F HX 108
EL CENTRO NAS  MOSUNNY  107  56  18 E6        29.86F HX 106
IMPERIAL       SUNNY    108  57  18 VRB5      29.85F HX 108
BLYTHE         SUNNY    108  62  22 S9        29.88F HX 110
NEEDLES        SUNNY    107  55  18 VRB3      29.92F HX 106
$$

NVZ020-UTZ003-272100-
SOUTHERN NEVADA-UTAH

CITY           SKY/WX    TMP DP  RH WIND       PRES   REMARKS
LAS VEGAS      PTSUNNY   97  55  24 VRB6      30.02F
SALT LAKE CITY MOSUNNY   84  53  34 N9        30.22F
$$

NMZ009-TXZ055-272100-
NEW MEXICO-WEST TEXAS

CITY           SKY/WX    TMP DP  RH WIND       PRES   REMARKS
ALBUQUERQUE    MOSUNNY   83  53  35 VRB5      30.24F
EL PASO        PTSUNNY   91  53  27 SW3       30.13F
$$


........................KEY........................
SKY/WX - SKY CONDITION/WEATHER
TMP    - TEMPERATURE IN FAHRENHEIT
DP     - DEW POINT IN FAHRENHEIT
RH     - RELATIVE HUMIDITY IN PERCENT
WIND   - DIRECTION AND SPEED IN MILES PER HOUR (MPH)
VRB    - VARIABLE WIND DIRECTION
PRES   - MEAN SEA LEVEL PRESSURE IN INCHES OF MERCURY
         F - FALLING PRESSURE   R - RISING PRESSURE
         S - STEADY PRESSURE
VSB    - VISIBILITY IN MILES
HX     - HEAT INDEX IN FAHRENHEIT
WCI    - WIND CHILL INDEX IN FAHRENHEIT
TC     - TEMPERATURE IN CELSIUS WHICH IS ALSO KNOWN AS
         TEMPERATURE IN CENTIGRADE
AFB    - AIR FORCE BASE
         LUKE AFB IS LUKE AIR FORCE BASE
         DAVIS-MONTHAN IS DAVIS-MONTHAN AIR FORCE BASE
NAS    - NAVAL AIR STATION
         EL CENTRO NAS IS EL CENTRO NAVAL AIR STATION
N/A    - NOT AVAILABLE



USA.gov is the U.S. government's official web portal to all federal, state and local government web resources and services.